Date,TemperatureHighF,TemperatureAvgF,TemperatureLowF,DewpointHighF,DewpointAvgF,DewpointLowF,HumidityHigh,HumidityAvg,HumidityLow,PressureMaxIn,PressureMinIn,WindSpeedMaxMPH,WindSpeedAvgMPH,GustSpeedMaxMPH,PrecipitationSumIn
2013-1-1,24.4,22.4,20.4,19.0,15.0,11.0,85,73,65,30.10,29.97,19,10,25,0.00
2013-1-2,26.7,25.0,22.1,22.0,19.6,15.0,88,80,70,30.07,29.96,18,8,22,0.00
2013-1-3,30.7,28.0,24.4,26.0,23.5,21.0,92,83,72,30.02,29.92,24,12,30,0.00
2013-1-4,37.2,30.0,27.2,30.0,25.2,23.0,88,82,70,30.06,29.80,35,17,39,0.00
2013-1-5,36.4,32.6,29.6,33.0,26.0,23.0,88,76,70,30.14,29.80,20,7,24,0.00
2013-1-6,36.0,31.5,27.9,31.0,26.6,22.0,90,82,77,30.20,29.75,17,9,22,0.00
2013-1-7,40.0,33.7,27.4,31.0,26.3,21.0,82,74,63,30.20,29.84,33,16,42,0.00
2013-1-8,42.5,36.8,33.9,34.0,31.6,28.0,89,81,66,30.08,29.90,22,8,28,0.00
2013-1-9,39.8,37.7,36.5,34.0,29.7,26.0,82,73,64,30.36,29.75,30,17,41,0.00
2013-1-10,42.3,36.2,29.8,30.0,27.0,25.0,84,70,53,30.48,30.05,15,7,23,0.00
2013-1-11,45.1,40.7,35.7,45.0,39.1,27.0,99,94,63,30.04,29.60,18,7,22,0.43
2013-1-12,52.3,44.7,34.8,47.0,39.8,29.0,98,83,63,29.89,29.55,32,15,42,0.00
2013-1-13,34.6,31.4,27.8,31.0,28.9,25.0,95,90,79,29.92,29.79,18,6,24,0.00
2013-1-14,27.7,23.5,21.5,25.0,16.8,12.0,94,76,60,30.31,29.92,24,12,32,0.00
2013-1-15,27.8,23.9,18.3,22.0,16.7,10.0,82,74,66,30.34,30.01,22,12,30,0.00
2013-1-16,31.6,27.5,23.4,29.0,23.8,17.0,96,86,72,30.00,29.58,33,16,37,0.00
2013-1-17,22.8,16.2,14.5,18.0,8.0,2.0,87,70,55,30.28,29.95,25,14,32,0.00
2013-1-18,38.4,21.8,15.0,34.0,16.5,6.0,92,80,64,30.31,29.70,19,11,26,0.01
2013-1-19,38.0,32.2,27.7,36.0,30.3,23.0,96,92,82,29.78,29.37,23,9,38,0.08
2013-1-20,26.9,16.3,13.1,21.0,9.7,4.0,90,75,65,30.10,29.45,37,18,51,0.00
2013-1-21,13.9,9.2,2.7,10.0,4.3,-1.0,87,81,68,30.04,29.90,25,14,31,0.00
2013-1-22,10.0,5.7,2.8,3.0,-0.1,-2.0,85,77,63,30.20,30.03,22,13,27,0.00
2013-1-23,13.9,12.3,10.2,11.0,7.5,3.0,89,81,68,30.21,30.01,18,11,24,0.00
2013-1-24,13.3,7.8,1.6,8.0,2.0,-3.0,87,77,65,30.63,30.23,15,6,21,0.00
2013-1-25,19.8,15.4,9.8,16.0,11.2,2.0,91,83,67,30.44,29.94,17,10,24,0.00
2013-1-26,27.2,21.9,17.7,20.0,17.2,15.0,92,82,67,30.37,30.01,13,5,17,0.01
2013-1-27,30.5,26.6,22.0,28.0,21.9,16.0,94,83,72,30.36,30.01,16,9,25,0.00
2013-1-28,32.2,30.4,28.6,32.0,29.1,27.0,97,95,90,30.00,29.79,9,2,13,0.02
2013-1-29,49.1,38.5,30.1,49.0,37.7,29.0,99,96,93,29.94,29.42,19,8,26,0.54
2013-1-30,34.5,30.7,19.5,34.0,30.3,18.0,99,98,94,29.43,29.08,13,3,22,0.11
2013-1-31,19.0,16.9,15.2,18.0,14.3,13.0,94,89,81,29.82,29.19,25,12,33,0.00
2013-2-1,17.5,15.1,11.7,13.0,10.8,9.0,91,83,72,30.08,29.82,25,13,30,0.00
2013-2-2,15.8,12.9,11.5,11.0,7.0,4.0,89,77,62,30.05,29.99,16,7,20,0.00
2013-2-3,18.4,14.6,10.5,15.0,9.0,3.0,92,79,59,29.98,29.78,23,11,30,0.00
2013-2-4,16.9,15.1,12.3,12.0,8.9,6.0,88,77,66,29.96,29.89,19,7,21,0.00
2013-2-5,23.8,17.4,10.1,21.0,12.7,7.0,92,82,65,29.98,29.66,26,12,31,0.00
2013-2-6,25.6,21.1,15.4,21.0,14.7,9.0,93,77,63,30.21,29.98,22,7,28,0.01
2013-2-7,27.9,24.0,20.8,27.0,22.6,19.0,96,94,92,30.18,30.05,17,9,25,0.00
2013-2-8,22.5,19.6,13.5,20.0,15.8,8.0,93,85,70,30.37,30.07,17,8,23,0.00
2013-2-9,30.3,19.4,7.2,18.0,12.7,4.0,90,76,55,30.39,30.17,13,6,19,0.00
2013-2-10,38.2,30.5,23.2,36.0,24.8,18.0,95,79,65,30.18,29.47,22,12,28,0.41
2013-2-11,41.4,34.6,27.2,39.0,32.7,22.0,97,92,79,29.73,29.31,31,15,36,0.04
2013-2-12,27.7,26.8,26.2,24.0,22.0,20.0,87,82,76,29.92,29.75,21,12,31,0.00
2013-2-13,36.6,32.1,27.2,31.0,28.4,24.0,91,86,81,29.79,29.63,16,8,23,0.00
2013-2-14,34.6,31.5,24.6,33.0,30.0,21.0,98,94,84,29.81,29.55,27,10,37,0.03
2013-2-15,24.9,21.2,17.7,21.0,13.9,8.0,86,74,59,30.09,29.81,24,13,31,0.00
2013-2-16,19.9,15.6,11.8,14.0,9.3,5.0,90,76,64,30.14,30.02,14,5,18,0.01
2013-2-17,20.1,15.0,8.2,14.0,9.0,3.0,86,77,68,30.18,30.08,13,5,17,0.00
2013-2-18,39.5,29.6,18.4,36.0,20.7,11.0,96,70,60,30.08,29.39,19,12,27,0.05
2013-2-19,40.9,27.5,15.8,39.0,25.9,14.0,96,94,88,29.81,29.13,37,21,48,0.07
2013-2-20,20.4,15.3,12.5,17.0,11.5,8.0,91,84,80,30.28,29.81,32,19,41,0.00
2013-2-21,20.4,16.4,13.9,16.0,12.1,10.0,91,83,73,30.43,30.28,20,8,24,0.00
2013-2-22,29.9,26.4,18.4,28.0,24.3,16.0,94,91,86,30.30,29.78,19,9,24,0.00
2013-2-23,31.3,28.5,26.7,29.0,26.6,25.0,95,92,85,29.80,29.72,12,5,16,0.05
2013-2-24,32.4,29.5,25.2,30.0,27.3,24.0,96,91,84,30.11,29.79,12,5,14,0.03
2013-2-25,35.8,32.3,29.5,28.0,27.1,26.0,91,81,68,30.16,30.09,10,3,13,0.01
2013-2-26,34.9,31.6,27.3,28.0,26.0,23.0,84,79,73,30.14,29.75,25,11,33,0.00
2013-2-27,33.6,32.5,30.9,33.0,30.6,28.0,97,93,84,29.74,29.62,22,11,31,0.00
2013-2-28,32.5,29.7,23.6,32.0,25.4,16.0,97,84,70,30.07,29.68,20,14,28,0.00
2013-3-1,25.8,21.1,16.3,17.0,14.3,12.0,85,75,65,30.21,30.07,22,12,27,0.00
2013-3-2,24.9,19.7,14.9,19.0,14.0,10.0,84,78,70,30.18,30.08,17,10,24,0.00
2013-3-3,24.9,19.7,15.1,18.0,14.7,10.0,88,81,67,30.08,30.04,15,8,21,0.00
2013-3-4,27.2,20.4,11.7,19.0,14.0,9.0,90,77,54,30.16,30.07,13,5,16,0.00
2013-3-5,29.0,23.5,18.0,23.0,18.4,11.0,85,81,69,30.15,30.00,16,8,22,0.00
2013-3-6,34.0,30.9,27.5,31.0,27.7,23.0,96,88,82,30.25,30.06,17,8,28,0.00
2013-3-7,28.1,26.5,25.2,24.0,21.0,18.0,90,79,73,30.41,30.24,19,8,24,0.00
2013-3-8,34.4,28.8,22.3,30.0,25.0,20.0,92,86,77,30.49,30.35,10,4,14,0.00
2013-3-9,43.9,36.7,27.4,34.0,26.3,23.0,92,68,48,30.34,29.90,21,8,24,0.29
2013-3-10,40.6,37.9,34.8,39.0,36.3,34.0,98,94,84,29.90,29.75,20,8,25,0.54
2013-3-11,43.3,37.7,32.1,43.0,37.5,32.0,99,98,97,29.77,29.39,22,8,30,0.45
2013-3-12,31.9,27.2,23.0,32.0,24.9,19.0,99,91,83,29.82,29.45,20,11,25,0.00
2013-3-13,28.4,24.6,20.2,21.0,17.3,14.0,91,75,55,30.18,29.81,24,15,32,0.01
2013-3-14,31.3,27.9,24.4,24.0,20.8,16.0,82,74,67,30.21,29.93,17,8,23,0.00
2013-3-15,33.9,29.2,21.4,31.0,23.1,13.0,95,78,65,29.94,29.82,21,13,30,0.00
2013-3-16,22.4,19.9,16.8,18.0,13.9,11.0,90,78,65,30.00,29.88,17,8,22,0.00
2013-3-17,23.7,19.5,15.2,22.0,10.7,6.0,92,69,56,30.32,30.01,29,11,35,0.00
2013-3-18,39.3,26.1,14.4,29.0,19.5,8.0,95,77,48,30.20,29.47,24,10,30,0.00
2013-3-19,31.0,26.5,22.9,30.0,24.1,17.0,95,91,69,29.79,29.41,25,14,34,0.00
2013-3-20,26.0,23.8,21.8,23.0,17.7,13.0,92,78,68,29.84,29.78,24,15,34,0.00
2013-3-21,28.1,26.4,25.2,26.0,21.8,20.0,93,83,76,29.92,29.79,23,14,30,0.00
2013-3-22,31.4,28.6,25.5,26.0,24.2,20.0,90,83,76,30.03,29.89,18,10,22,0.00
2013-3-23,33.5,30.7,27.3,30.0,26.5,23.0,90,84,72,30.10,30.02,11,6,16,0.00
2013-3-24,35.2,31.1,27.9,27.0,24.5,19.0,90,77,53,30.07,29.83,13,7,17,0.00
2013-3-25,35.5,32.8,30.1,31.0,27.5,24.0,89,81,75,29.97,29.81,19,10,24,0.00
2013-3-26,39.0,34.7,32.6,32.0,30.2,26.0,94,84,61,30.10,29.97,16,8,20,0.00
2013-3-27,39.0,34.5,31.7,32.0,30.4,29.0,92,85,74,30.18,30.08,13,8,18,0.00
2013-3-28,39.8,35.8,33.2,30.0,28.2,26.0,87,74,60,30.24,30.18,16,7,18,0.00
2013-3-29,41.9,35.0,28.3,31.0,24.9,20.0,92,69,45,30.26,30.18,13,5,15,0.00
2013-3-30,48.7,40.4,31.8,39.0,24.4,19.0,92,55,33,30.18,29.75,19,8,30,0.07
2013-3-31,41.4,36.5,28.1,40.0,34.3,21.0,99,92,73,29.74,29.53,30,12,37,0.04
2013-4-1,28.1,25.4,23.6,22.0,17.3,13.0,91,72,57,30.05,29.71,32,17,35,0.01
2013-4-2,31.4,28.1,26.3,22.0,18.0,14.0,78,66,58,30.23,30.02,23,13,28,0.00
2013-4-3,34.1,28.9,25.8,21.0,17.6,14.0,77,63,53,30.41,30.22,18,9,28,0.00
2013-4-4,45.2,35.1,28.9,35.0,24.2,15.0,96,66,49,30.23,29.90,24,14,38,0.00
2013-4-5,35.2,31.5,29.3,29.0,22.2,18.0,85,69,58,30.21,30.00,18,9,23,0.00
2013-4-6,44.0,33.5,27.8,33.0,26.5,19.0,92,76,58,30.19,29.54,22,10,36,0.06
2013-4-7,47.6,37.2,32.3,45.0,33.8,29.0,97,88,57,30.01,29.38,25,12,32,0.04
2013-4-8,41.0,35.3,30.8,37.0,32.6,28.0,96,89,78,30.00,29.75,19,8,25,0.20
2013-4-9,39.7,36.1,33.1,38.0,35.0,32.0,98,95,88,30.09,29.98,17,6,23,0.11
2013-4-10,41.0,35.9,33.1,33.0,31.7,26.0,95,85,67,30.11,30.03,17,6,21,0.01
2013-4-11,35.4,32.2,29.6,28.0,24.0,19.0,92,72,55,30.08,29.79,25,16,38,0.00
2013-4-12,33.4,30.7,28.0,32.0,29.4,26.0,97,95,91,29.78,29.58,26,13,38,0.05
2013-4-13,35.2,32.5,31.2,34.0,31.1,29.0,97,94,85,29.89,29.66,22,8,28,0.02
2013-4-14,42.0,35.6,30.2,31.0,28.8,26.0,89,77,60,30.04,29.88,17,7,25,0.00
2013-4-15,53.0,45.4,36.8,51.0,41.1,29.0,97,85,71,29.89,29.69,26,12,32,0.04
2013-4-16,44.9,39.6,35.6,38.0,31.3,-99.9,87,75,62,30.30,29.82,26,0,27,0.00
2013-4-17,49.2,38.9,30.8,35.0,32.0,29.0,95,78,54,30.37,30.07,21,8,23,0.00
2013-4-18,47.3,41.7,37.2,47.0,40.6,35.0,99,95,90,30.05,29.32,22,10,25,0.38
2013-4-19,54.6,38.6,27.3,54.0,33.9,20.0,99,83,70,29.63,29.16,39,19,44,0.10
2013-4-20,31.9,28.0,24.6,26.0,19.6,15.0,87,71,54,30.43,29.63,27,14,34,0.00
2013-4-21,47.3,35.4,22.6,30.0,19.4,13.0,82,56,27,30.58,30.32,16,6,20,0.00
2013-4-22,58.8,45.7,39.8,37.0,31.9,28.0,77,60,39,30.32,30.07,19,9,23,0.00
2013-4-23,56.0,44.6,33.1,47.0,36.0,31.0,97,74,49,30.07,29.81,24,10,30,0.24
2013-4-24,42.3,36.6,33.4,33.0,28.6,23.0,94,74,50,29.96,29.86,16,9,20,0.02
2013-4-25,43.9,39.3,36.5,36.0,31.5,24.0,90,74,56,30.23,29.86,24,12,32,0.01
2013-4-26,62.8,48.0,37.1,45.0,34.0,29.0,76,60,36,30.29,30.10,24,11,29,0.04
2013-4-27,65.7,54.6,47.6,51.0,45.8,40.0,87,73,57,30.16,30.03,18,8,25,0.06
2013-4-28,69.9,60.4,48.2,48.0,41.7,36.0,81,53,31,30.03,29.74,13,6,19,0.00
2013-4-29,63.7,55.4,49.8,56.0,51.5,48.0,97,87,68,29.81,29.76,12,7,16,0.16
2013-4-30,74.8,64.2,56.2,61.0,57.0,53.0,94,79,59,29.82,29.69,32,15,36,0.13
2013-5-1,70.5,59.2,42.8,61.0,51.6,37.0,87,76,65,30.22,29.80,25,11,29,0.00
2013-5-2,52.1,43.4,38.0,44.0,38.8,36.0,94,84,70,30.25,30.11,20,10,30,0.00
2013-5-3,69.8,52.6,37.5,53.0,43.0,36.0,95,73,45,30.18,30.00,15,6,18,0.00
2013-5-4,75.0,65.5,56.9,53.0,43.6,24.0,65,47,22,30.06,29.97,13,6,22,0.00
2013-5-5,72.5,61.8,49.1,44.0,37.2,26.0,61,41,28,30.07,29.96,18,6,22,0.00
2013-5-6,67.9,60.6,49.0,45.0,39.6,35.0,68,47,34,30.05,29.95,13,5,16,0.00
2013-5-7,74.0,62.9,54.4,41.0,36.6,31.0,52,39,24,30.05,29.94,16,7,18,0.00
2013-5-8,72.6,64.0,56.3,46.0,37.7,28.0,55,39,25,29.98,29.91,9,5,12,0.00
2013-5-9,68.9,54.4,43.7,48.0,41.2,35.0,93,63,38,29.98,29.89,23,7,31,0.06
2013-5-10,45.5,40.8,37.6,45.0,38.6,36.0,96,92,85,29.98,29.91,23,9,26,0.74
2013-5-11,47.6,39.2,33.5,43.0,36.9,33.0,97,91,79,29.91,29.68,20,6,29,0.13
2013-5-12,38.7,36.2,33.5,35.0,30.1,25.0,96,79,64,30.03,29.71,27,18,39,0.01
2013-5-13,47.4,41.0,35.2,33.0,27.4,21.0,85,61,38,30.12,29.99,16,8,24,0.00
2013-5-14,67.9,54.3,41.5,47.0,37.5,24.0,83,54,42,29.99,29.55,21,8,25,0.03
2013-5-15,70.6,58.8,48.7,50.0,45.4,42.0,85,63,35,29.71,29.38,24,12,28,0.00
2013-5-16,57.4,52.1,44.6,44.0,40.3,39.0,84,65,53,30.03,29.68,12,5,16,0.00
2013-5-17,64.9,53.3,41.8,46.0,42.5,39.0,89,68,46,30.16,30.04,11,4,12,0.00
2013-5-18,66.9,57.1,49.4,51.0,46.0,41.0,87,68,49,30.14,29.96,14,7,20,0.00
2013-5-19,78.6,67.6,61.3,63.0,53.4,45.0,74,61,52,29.96,29.78,13,6,18,0.00
2013-5-20,75.4,65.4,56.2,66.0,60.3,53.0,98,84,68,29.81,29.63,18,8,23,0.03
2013-5-21,72.6,59.3,53.9,65.0,57.7,52.0,100,94,77,29.71,29.60,17,9,22,0.39
2013-5-22,59.8,53.7,50.6,60.0,51.4,-99.9,100,98,97,29.70,29.62,15,-3,18,0.15
2013-5-23,51.2,44.4,40.9,51.0,40.8,37.0,99,87,74,30.21,29.72,23,12,27,0.40
2013-5-24,48.8,42.4,36.6,37.0,34.3,31.0,86,74,56,30.37,30.21,17,7,19,0.00
2013-5-25,57.3,46.9,35.0,44.0,37.0,33.0,97,71,41,30.42,30.29,12,4,13,0.00
2013-5-26,61.8,52.2,37.1,42.0,36.1,32.0,91,57,36,30.35,30.18,11,4,13,0.00
2013-5-27,71.4,61.1,47.8,45.0,36.4,31.0,70,42,23,30.21,29.95,16,7,18,0.00
2013-5-28,58.6,55.1,51.4,57.0,49.4,35.0,99,83,42,29.95,29.70,13,7,16,0.20
2013-5-29,68.2,58.5,49.4,64.0,56.9,49.0,100,95,84,29.88,29.69,14,6,16,0.00
2013-5-30,86.1,75.6,62.0,72.0,62.3,-99.9,98,69,54,29.86,29.76,17,-23,25,0.00
2013-5-31,77.9,69.7,63.7,69.0,64.5,59.0,96,83,61,29.82,29.68,24,9,29,0.02
2013-6-1,71.3,64.4,54.1,66.0,61.6,53.0,99,91,79,29.68,29.58,12,5,26,0.16
2013-6-2,60.9,46.7,42.9,59.0,44.4,39.0,98,92,79,29.98,29.54,15,8,23,0.07
2013-6-3,56.0,48.0,39.8,46.0,40.8,37.0,91,77,51,30.07,29.97,21,8,28,0.00
2013-6-4,58.1,50.1,37.9,46.0,37.5,30.0,95,65,38,30.19,30.09,8,2,10,0.00
2013-6-5,57.8,54.0,49.2,53.0,45.7,35.0,88,74,57,30.16,30.05,12,4,15,0.02
2013-6-6,66.2,57.8,50.1,48.0,43.3,39.0,76,60,39,30.05,29.91,15,6,19,0.00
2013-6-7,66.8,57.4,48.1,50.0,44.0,40.0,83,62,43,29.94,29.85,9,4,14,0.00
2013-6-8,66.1,58.7,49.1,55.0,45.7,38.0,89,64,37,30.01,29.87,10,3,11,0.00
2013-6-9,74.1,65.2,51.2,58.0,52.1,42.0,84,64,49,30.07,29.93,12,5,17,0.00
2013-6-10,70.4,62.8,57.8,62.0,56.8,52.0,96,81,62,29.93,29.75,14,8,19,0.00
2013-6-11,72.7,61.2,57.1,64.0,58.9,56.0,99,93,73,29.83,29.76,14,3,18,0.00
2013-6-12,74.8,63.3,53.7,64.0,56.5,52.0,100,81,54,29.86,29.70,9,3,12,0.01
2013-6-13,65.1,58.1,52.7,57.0,53.1,49.0,94,84,63,29.98,29.68,20,8,23,0.00
2013-6-14,64.8,56.7,49.1,49.0,42.5,24.0,91,63,22,30.09,29.99,12,4,12,0.00
2013-6-15,71.7,61.8,48.0,60.0,48.9,36.0,95,64,47,29.99,29.77,12,4,17,0.02
2013-6-16,73.2,61.6,55.1,64.0,58.6,53.0,100,90,67,29.80,29.68,18,6,21,0.26
2013-6-17,65.4,56.8,51.8,58.0,54.3,51.0,98,92,74,29.97,29.77,11,4,14,0.00
2013-6-18,67.3,57.9,47.7,54.0,47.8,39.0,97,72,39,30.08,29.98,10,4,12,0.01
2013-6-19,65.9,58.8,49.4,50.0,46.4,43.0,82,64,50,30.14,30.05,15,5,15,0.00
2013-6-20,78.5,66.2,56.9,58.0,51.2,45.0,73,60,41,30.11,30.05,15,6,21,0.00
2013-6-21,82.3,70.2,59.5,68.0,61.0,55.0,91,73,57,30.10,29.85,15,7,22,0.00
2013-6-22,73.6,62.6,57.0,66.0,60.8,57.0,100,94,76,30.02,29.89,14,5,22,0.01
2013-6-23,84.4,73.1,61.6,72.0,67.1,61.0,98,82,60,29.96,29.78,22,7,22,0.00
2013-6-24,80.2,74.4,70.2,71.0,68.6,65.0,90,82,73,29.89,29.77,14,7,17,0.00
2013-6-25,74.8,70.1,61.5,69.0,65.4,60.0,96,85,71,29.79,29.75,16,7,22,0.00
2013-6-26,78.4,69.9,62.1,68.0,64.8,61.0,99,85,64,29.77,29.67,13,4,16,0.00
2013-6-27,77.6,67.3,61.8,69.0,64.0,61.0,97,89,72,29.73,29.60,13,4,15,0.00
2013-6-28,71.3,65.0,59.3,65.0,62.5,59.0,98,91,80,29.61,29.53,12,5,16,0.02
2013-6-29,70.4,65.2,61.1,63.0,60.4,57.0,98,85,71,29.75,29.56,15,5,18,0.03
2013-6-30,73.1,67.0,61.9,58.0,52.2,45.0,88,60,37,29.99,29.75,14,6,25,0.00
2013-7-1,73.1,65.7,57.0,57.0,49.5,42.0,75,57,42,30.11,29.99,17,7,23,0.00
2013-7-2,72.4,62.9,52.8,54.0,47.8,42.0,81,60,37,30.12,30.04,13,4,15,0.00
2013-7-3,73.5,66.7,59.1,58.0,53.4,48.0,74,63,45,30.06,29.96,10,4,13,0.00
2013-7-4,77.2,67.6,61.2,65.0,62.2,58.0,98,83,64,30.02,29.95,12,6,20,0.00
2013-7-5,81.5,73.1,66.3,67.0,63.0,60.0,86,71,55,30.00,29.92,18,7,18,0.00
2013-7-6,82.6,74.4,68.7,66.0,62.0,58.0,80,66,51,29.96,29.88,19,9,21,0.00
2013-7-7,79.9,71.8,67.0,69.0,65.3,60.0,95,80,65,29.91,29.84,15,5,16,0.00
2013-7-8,73.8,70.1,66.9,72.0,68.4,66.0,98,94,87,29.92,29.85,11,5,17,0.49
2013-7-9,77.4,70.2,66.2,71.0,68.1,66.0,100,93,78,29.93,29.65,10,4,14,0.01
2013-7-10,72.0,67.1,63.6,71.0,63.0,57.0,98,87,73,29.89,29.61,22,10,28,0.08
2013-7-11,71.2,64.2,57.8,59.0,57.2,52.0,96,79,53,30.05,29.89,15,5,20,0.00
2013-7-12,75.3,66.1,56.4,62.0,56.5,52.0,94,73,53,30.13,30.04,12,5,12,0.00
2013-7-13,80.1,72.2,64.0,64.0,60.3,58.0,85,67,51,30.14,30.04,16,7,20,0.00
2013-7-14,81.5,74.0,64.6,68.0,63.7,58.0,84,71,61,30.19,30.13,11,5,17,0.00
2013-7-15,84.5,76.1,67.6,70.0,66.1,63.0,90,72,57,30.23,30.16,9,3,12,0.00
2013-7-16,89.2,79.4,68.4,75.0,70.4,66.0,92,75,55,30.21,30.10,14,5,16,0.00
2013-7-17,89.1,80.7,72.3,74.0,72.1,68.0,88,76,57,30.14,30.03,18,8,23,0.00
2013-7-18,87.3,78.5,72.5,77.0,73.0,70.0,97,84,64,30.04,29.69,18,7,29,0.26
2013-7-19,83.3,78.3,67.7,74.0,70.5,62.0,90,77,69,29.70,29.55,27,12,34,0.01
2013-7-20,68.6,66.0,60.2,64.0,55.2,47.0,92,70,47,29.94,29.67,17,8,21,0.00
2013-7-21,68.8,62.1,49.2,61.0,55.5,47.0,94,79,67,29.99,29.89,13,5,16,0.00
2013-7-22,81.3,72.4,63.9,70.0,64.6,59.0,87,77,58,29.88,29.58,16,8,22,0.00
2013-7-23,77.2,63.6,58.7,67.0,55.3,47.0,94,74,62,29.88,29.55,23,13,34,0.02
2013-7-24,67.1,60.7,49.6,54.0,50.4,45.0,93,70,56,30.02,29.88,19,5,25,0.00
2013-7-25,75.5,65.8,54.5,61.0,55.9,51.0,95,72,51,30.02,29.92,15,6,19,0.00
2013-7-26,75.9,64.4,57.8,66.0,59.9,55.0,97,86,62,29.97,29.78,22,9,30,1.13
2013-7-27,62.1,58.5,56.3,61.0,55.6,51.0,97,90,78,29.80,29.73,14,7,17,0.22
2013-7-28,62.8,57.6,55.0,56.0,53.5,51.0,97,86,69,29.84,29.69,18,7,23,0.03
2013-7-29,66.0,59.3,53.6,60.0,56.3,53.0,98,90,75,30.11,29.84,16,6,20,0.02
2013-7-30,70.3,62.5,55.1,61.0,57.9,54.0,98,86,66,30.16,30.04,9,4,14,0.02
2013-7-31,74.4,66.6,59.8,66.0,61.5,57.0,97,84,67,30.04,29.82,15,6,35,0.01
2013-8-1,68.8,63.4,58.7,64.0,59.8,57.0,99,89,68,29.83,29.79,13,5,18,0.00
2013-8-2,68.6,64.2,58.6,63.0,59.7,57.0,97,86,70,29.86,29.74,17,6,21,0.01
2013-8-3,66.0,63.0,58.8,58.0,55.9,53.0,89,78,69,30.03,29.86,20,8,24,0.00
2013-8-4,66.2,62.3,56.9,56.0,53.6,50.0,88,74,57,30.16,30.04,14,7,23,0.31
2013-8-5,70.3,61.3,53.1,57.0,53.1,49.0,93,76,53,30.05,29.84,11,5,18,0.00
2013-8-6,75.0,68.0,62.1,68.0,62.7,55.0,95,83,72,29.83,29.72,14,7,17,0.00
2013-8-7,69.7,65.9,60.7,67.0,62.8,57.0,98,89,82,29.91,29.60,17,9,27,0.84
2013-8-8,69.3,63.7,53.6,59.0,55.0,50.0,93,74,52,29.99,29.92,17,4,21,0.00
2013-8-9,71.4,64.2,55.6,63.0,56.2,49.0,91,76,63,29.98,29.84,23,9,27,0.00
2013-8-10,68.4,61.3,50.0,59.0,53.3,48.0,91,76,56,30.09,29.98,16,6,18,0.00
2013-8-11,71.9,64.4,58.3,63.0,57.9,54.0,93,80,56,30.04,29.96,11,6,15,0.00
2013-8-12,73.8,64.6,57.8,66.0,60.4,51.0,99,87,66,29.97,29.81,23,9,26,0.00
2013-8-13,61.4,57.7,54.7,51.0,48.4,46.0,79,72,60,30.06,29.89,23,15,29,0.00
2013-8-14,64.3,60.2,57.2,55.0,52.5,50.0,88,76,63,30.12,30.05,19,9,21,0.00
2013-8-15,69.9,62.1,54.4,60.0,54.2,49.0,93,77,48,30.05,30.00,11,6,15,0.00
2013-8-16,75.0,65.3,54.4,64.0,57.9,54.0,97,79,51,30.13,30.05,9,3,12,0.00
2013-8-17,78.0,68.0,57.9,59.0,56.1,53.0,89,68,45,30.19,30.11,13,5,15,0.00
2013-8-18,78.0,68.9,62.9,62.0,56.8,52.0,79,66,47,30.15,30.01,12,5,16,0.00
2013-8-19,78.1,70.1,61.9,65.0,59.8,56.0,84,71,56,30.02,29.91,17,8,22,0.00
2013-8-20,83.5,74.3,67.0,68.0,64.7,61.0,87,73,52,29.98,29.91,16,8,22,0.00
2013-8-21,87.0,77.4,70.3,71.0,67.1,63.0,84,71,56,29.93,29.79,24,11,38,0.04
2013-8-22,74.8,70.0,65.4,68.0,62.9,56.0,97,79,56,30.05,29.81,18,6,26,0.01
2013-8-23,74.1,65.6,55.1,63.0,57.9,53.0,96,77,56,30.16,30.06,14,5,17,0.00
2013-8-24,76.3,67.6,60.1,64.0,58.4,53.0,84,73,58,30.22,30.14,13,6,18,0.00
2013-8-25,87.9,76.5,63.8,71.0,63.8,55.0,73,65,58,30.14,29.90,28,13,32,0.01
2013-8-26,81.6,75.6,69.7,72.0,68.9,67.0,96,80,63,29.96,29.86,17,9,31,0.04
2013-8-27,75.4,71.0,66.8,72.0,69.0,65.0,97,93,86,29.89,29.78,9,3,13,0.02
2013-8-28,77.6,71.0,64.4,70.0,68.4,64.0,99,92,77,29.98,29.79,8,3,11,0.01
2013-8-29,82.3,73.4,65.9,72.0,68.6,66.0,99,86,63,30.01,29.87,12,4,12,0.01
2013-8-30,75.3,69.5,67.6,72.0,63.2,-99.9,97,86,79,29.87,29.69,24,-11,31,0.05
2013-8-31,73.3,68.3,63.0,67.0,64.4,62.0,96,87,70,29.83,29.74,11,4,13,0.00
2013-9-1,74.1,67.6,60.9,69.0,64.5,58.0,95,89,75,29.79,29.62,17,7,25,0.04
2013-9-2,60.5,57.4,55.3,58.0,53.0,51.0,92,85,78,29.87,29.72,24,14,28,0.00
2013-9-3,67.6,62.7,59.2,59.0,55.5,52.0,86,78,61,29.95,29.86,23,12,26,0.00
2013-9-4,65.6,62.2,55.6,61.0,55.6,45.0,95,80,58,30.10,29.85,17,9,21,0.00
2013-9-5,62.1,56.6,52.0,50.0,45.7,41.0,83,68,52,30.27,30.10,16,6,19,0.00
2013-9-6,74.2,63.1,51.6,62.0,53.4,44.0,84,71,58,30.18,29.89,18,8,21,0.02
2013-9-7,74.4,69.9,66.0,70.0,66.5,58.0,97,89,70,29.94,29.79,17,9,22,0.14
2013-9-8,69.0,62.2,55.0,64.0,55.5,52.0,91,79,58,30.10,29.95,12,6,19,0.00
2013-9-9,73.8,65.6,56.7,71.0,60.4,52.0,91,83,76,29.98,29.66,13,7,22,0.00
2013-9-10,83.9,77.3,67.0,73.0,70.4,66.0,96,80,65,29.86,29.64,18,8,25,0.02
2013-9-11,74.5,69.2,65.3,70.0,66.3,65.0,98,90,79,29.89,29.81,16,8,20,0.06
2013-9-12,67.9,60.6,53.2,65.0,54.5,45.0,93,80,65,30.00,29.83,26,14,33,0.02
2013-9-13,56.2,51.4,47.0,50.0,43.4,40.0,92,74,60,30.14,30.00,19,8,31,0.01
2013-9-14,64.1,54.6,44.1,54.0,48.5,42.0,92,80,68,30.10,29.94,16,7,22,0.00
2013-9-15,59.7,57.6,52.8,58.0,54.4,46.0,97,89,78,30.14,29.92,25,8,27,0.00
2013-9-16,55.8,49.0,43.7,47.0,41.1,38.0,84,75,59,30.38,30.15,13,5,21,0.02
2013-9-17,62.6,52.5,43.4,50.0,44.5,37.0,89,75,51,30.37,30.13,11,5,15,0.07
2013-9-18,70.8,63.4,53.1,59.0,53.3,44.0,81,70,61,30.12,29.88,0,0,0,0.05
2013-9-19,79.0,71.4,64.0,71.0,65.2,58.0,94,81,68,29.88,29.68,0,0,0,0.17
2013-9-20,71.6,67.7,59.8,68.0,65.6,56.0,97,92,86,29.68,29.58,0,0,0,0.10
2013-9-21,59.5,54.4,49.8,56.0,48.5,41.0,93,80,68,29.86,29.65,0,0,0,0.02
2013-9-22,52.2,49.1,46.0,44.0,41.3,40.0,83,75,67,30.07,29.86,0,0,0,0.00
2013-9-23,59.4,50.0,40.6,49.0,44.2,39.0,96,81,59,30.16,30.07,0,0,0,0.00
2013-9-24,63.8,54.6,47.5,55.0,49.4,45.0,93,83,61,30.11,29.96,0,0,0,0.00
2013-9-25,67.9,55.8,45.8,56.0,49.7,44.0,96,81,47,30.01,29.95,0,0,0,0.00
2013-9-26,68.4,57.4,45.8,56.0,50.8,45.0,97,80,50,30.08,29.98,0,0,0,0.00
2013-9-27,75.7,64.5,54.3,56.0,51.3,46.0,80,63,45,30.16,30.07,0,0,0,0.00
2013-9-28,76.2,66.1,56.4,58.0,55.5,53.0,92,70,50,30.08,29.76,0,0,0,0.00
2013-9-29,72.0,58.8,50.1,61.0,51.5,47.0,96,77,55,29.96,29.76,0,0,0,0.17
2013-9-30,67.8,58.1,45.8,56.0,48.7,43.0,94,73,50,29.96,29.79,0,0,0,0.00
2013-10-1,77.0,66.4,59.0,64.0,58.5,51.0,86,76,59,29.82,29.65,0,0,0,0.00
2013-10-2,66.9,62.6,56.6,60.0,49.8,42.0,80,64,43,30.01,29.77,0,0,0,0.00
2013-10-3,65.4,57.8,52.9,58.0,51.8,42.0,98,81,59,30.01,29.86,0,0,0,0.10
2013-10-4,57.2,56.1,55.5,56.0,55.3,55.0,98,97,94,30.05,29.86,0,0,0,0.67
2013-10-5,57.2,55.4,54.0,55.0,54.3,53.0,98,96,92,30.04,29.82,0,0,0,0.78
2013-10-6,67.7,58.3,52.6,66.0,57.3,50.0,99,96,90,29.81,29.55,0,0,0,0.86
2013-10-7,55.9,53.1,50.0,54.0,47.6,42.0,97,82,66,30.00,29.49,0,0,0,0.46
2013-10-8,67.8,56.6,42.7,53.0,46.3,40.0,92,70,50,30.15,30.00,0,0,0,0.00
2013-10-9,71.5,61.7,56.1,57.0,51.9,48.0,91,71,53,30.18,30.09,0,0,0,0.00
2013-10-10,68.0,58.5,50.8,56.0,49.3,46.0,88,72,51,30.15,30.06,0,0,0,0.00
2013-10-11,70.5,59.2,52.2,56.0,49.7,45.0,83,72,42,30.10,29.98,0,0,0,0.00
2013-10-12,77.6,63.9,53.4,61.0,51.8,43.0,93,67,40,30.00,29.86,0,0,0,0.03
2013-10-13,61.6,55.1,50.6,55.0,46.7,40.0,81,74,63,30.34,29.96,0,0,0,0.00
2013-10-14,56.1,48.8,39.0,47.0,41.6,37.0,96,77,52,30.40,30.24,0,0,0,0.00
2013-10-15,59.0,51.1,41.9,57.0,47.1,38.0,96,86,72,30.24,29.66,0,0,0,0.18
2013-10-16,58.0,52.9,50.3,57.0,49.8,44.0,97,89,78,29.79,29.61,0,0,0,0.09
2013-10-17,51.9,49.1,46.3,45.0,42.6,40.0,93,79,66,29.81,29.69,0,0,0,0.00
2013-10-18,53.0,46.8,43.0,49.0,42.6,-99.9,96,89,76,29.76,29.69,0,0,0,0.40
2013-10-19,49.5,44.9,40.2,44.0,40.4,35.0,96,85,59,29.76,29.64,22,4,24,0.83
2013-10-20,50.5,44.3,39.2,44.0,39.7,38.0,96,84,64,29.77,29.63,18,6,25,0.23
2013-10-21,49.3,43.1,34.8,48.0,38.9,-99.9,96,87,75,29.71,29.56,27,12,34,0.14
2013-10-22,44.2,40.9,34.7,38.0,34.9,27.0,93,79,65,29.83,29.60,28,15,39,0.12
2013-10-23,43.8,40.2,35.3,34.0,30.6,26.0,89,69,57,29.83,29.77,27,12,30,0.09
2013-10-24,44.6,41.9,39.8,38.0,35.3,31.0,86,77,68,30.08,29.82,22,14,28,0.06
2013-10-25,45.1,42.2,38.6,39.0,33.2,30.0,88,71,59,30.18,29.75,26,12,34,0.04
2013-10-26,51.2,45.3,42.2,44.0,39.0,36.0,93,79,69,29.79,29.52,28,18,40,0.02